Time,TemperatureF,DewpointF,PressureIn,WindDirection,WindDirectionDegrees,WindSpeedMPH,WindSpeedGustMPH,Humidity,HourlyPrecipIn,Conditions,Clouds,dailyrainin,SoftwareType,DateUTC
2014-01-30 00:00:00,14.9,6.3,30.11,North,-999,-999.0,0.0,68,0.00,,---,0.00,VWS V14.01,2014-01-30 05:00:00,
2014-01-30 00:01:00,14.9,6.3,30.11,North,-999,-999.0,0.0,68,0.00,,---,0.00,VWS V14.01,2014-01-30 05:01:00,
2014-01-30 00:02:00,15.1,6.5,30.11,North,-999,-999.0,0.0,68,0.00,,---,0.00,VWS V14.01,2014-01-30 05:02:00,
2014-01-30 00:03:00,15.1,6.5,30.11,North,-999,-999.0,0.0,68,0.00,,---,0.00,VWS V14.01,2014-01-30 05:03:00,
2014-01-30 00:05:00,15.1,6.5,30.11,North,-999,-999.0,0.0,68,0.00,,---,0.00,VWS V14.01,2014-01-30 05:05:00,
2014-01-30 00:08:00,15.3,6.7,30.11,North,-999,-999.0,0.0,68,0.00,,---,0.00,VWS V14.01,2014-01-30 05:08:00,
2014-01-30 00:10:00,15.1,6.5,30.12,North,-999,-999.0,0.0,68,0.00,,---,0.00,VWS V14.01,2014-01-30 05:10:00,
2014-01-30 00:16:00,15.3,6.7,30.12,North,-999,-999.0,0.0,68,0.00,,---,0.00,VWS V14.01,2014-01-30 05:16:00,
2014-01-30 00:21:00,15.1,6.1,30.12,North,-999,-999.0,0.0,67,0.00,,---,0.00,VWS V14.01,2014-01-30 05:21:00,
2014-01-30 00:26:00,14.9,6.3,30.11,North,-999,-999.0,0.0,68,0.00,,---,0.00,VWS V14.01,2014-01-30 05:26:00,
2014-01-30 00:31:00,14.9,5.9,30.12,North,-999,-999.0,0.0,67,0.00,,---,0.00,VWS V14.01,2014-01-30 05:31:00,
2014-01-30 00:36:00,14.8,6.2,30.11,North,-999,-999.0,0.0,68,0.00,,---,0.00,VWS V14.01,2014-01-30 05:36:00,
2014-01-30 00:42:00,14.6,6.0,30.12,North,-999,-999.0,0.0,68,0.00,,---,0.00,VWS V14.01,2014-01-30 05:42:00,
2014-01-30 00:47:00,14.4,5.8,30.12,North,-999,-999.0,0.0,68,0.00,,---,0.00,VWS V14.01,2014-01-30 05:47:00,
2014-01-30 00:52:00,14.6,6.0,30.12,North,-999,-999.0,0.0,68,0.00,,---,0.00,VWS V14.01,2014-01-30 05:52:00,
2014-01-30 00:57:00,14.6,6.0,30.12,North,-999,-999.0,0.0,68,0.00,,---,0.00,VWS V14.01,2014-01-30 05:57:00,
2014-01-30 01:02:00,14.6,6.3,30.12,North,-999,-999.0,0.0,69,0.00,,---,0.00,VWS V14.01,2014-01-30 06:02:00,
2014-01-30 01:08:00,14.8,6.2,30.12,North,-999,-999.0,0.0,68,0.00,,---,0.00,VWS V14.01,2014-01-30 06:08:00,
2014-01-30 01:13:00,14.6,6.0,30.12,North,-999,-999.0,0.0,68,0.00,,---,0.00,VWS V14.01,2014-01-30 06:13:00,
2014-01-30 01:18:00,14.2,5.9,30.12,North,-999,-999.0,0.0,69,0.00,,---,0.00,VWS V14.01,2014-01-30 06:18:00,
2014-01-30 01:23:00,14.0,5.7,30.13,North,-999,-999.0,0.0,69,0.00,,---,0.00,VWS V14.01,2014-01-30 06:23:00,
2014-01-30 01:28:00,14.0,5.7,30.12,North,-999,-999.0,0.0,69,0.00,,---,0.00,VWS V14.01,2014-01-30 06:28:00,
2014-01-30 01:34:00,14.0,5.7,30.13,North,-999,-999.0,0.0,69,0.00,,---,0.00,VWS V14.01,2014-01-30 06:34:00,
2014-01-30 01:39:00,14.0,5.7,30.13,North,-999,-999.0,0.0,69,0.00,,---,0.00,VWS V14.01,2014-01-30 06:39:00,
2014-01-30 01:44:00,13.9,5.9,30.13,North,-999,-999.0,0.0,70,0.00,,---,0.00,VWS V14.01,2014-01-30 06:44:00,
2014-01-30 01:49:00,13.9,5.9,30.13,North,-999,-999.0,0.0,70,0.00,,---,0.00,VWS V14.01,2014-01-30 06:49:00,
2014-01-30 01:54:00,13.9,5.6,30.13,North,-999,-999.0,0.0,69,0.00,,---,0.00,VWS V14.01,2014-01-30 06:54:00,
2014-01-30 02:00:00,13.7,5.4,30.13,North,-999,-999.0,0.0,69,0.00,,---,0.00,VWS V14.01,2014-01-30 07:00:00,
2014-01-30 02:05:00,13.3,5.4,30.13,North,-999,-999.0,0.0,70,0.00,,---,0.00,VWS V14.01,2014-01-30 07:05:00,
2014-01-30 02:10:00,13.1,5.2,30.13,North,-999,-999.0,0.0,70,0.00,,---,0.00,VWS V14.01,2014-01-30 07:10:00,
2014-01-30 02:15:00,13.1,5.2,30.13,North,-999,-999.0,0.0,70,0.00,,---,0.00,VWS V14.01,2014-01-30 07:15:00,
2014-01-30 02:20:00,13.0,5.1,30.13,North,-999,-999.0,0.0,70,0.00,,---,0.00,VWS V14.01,2014-01-30 07:20:00,
2014-01-30 02:26:00,13.1,5.2,30.13,North,-999,-999.0,0.0,70,0.00,,---,0.00,VWS V14.01,2014-01-30 07:26:00,
2014-01-30 02:31:00,13.1,5.2,30.13,North,-999,-999.0,0.0,70,0.00,,---,0.00,VWS V14.01,2014-01-30 07:31:00,
2014-01-30 02:36:00,13.0,5.1,30.13,North,-999,-999.0,0.0,70,0.00,,---,0.00,VWS V14.01,2014-01-30 07:36:00,
2014-01-30 02:41:00,12.6,4.7,30.13,North,-999,-999.0,0.0,70,0.00,,---,0.00,VWS V14.01,2014-01-30 07:41:00,
2014-01-30 02:46:00,12.4,4.8,30.13,North,-999,-999.0,0.0,71,0.00,,---,0.00,VWS V14.01,2014-01-30 07:46:00,
2014-01-30 02:52:00,12.4,4.8,30.13,North,-999,-999.0,0.0,71,0.00,,---,0.00,VWS V14.01,2014-01-30 07:52:00,
2014-01-30 02:57:00,12.6,5.0,30.12,North,-999,-999.0,0.0,71,0.00,,---,0.00,VWS V14.01,2014-01-30 07:57:00,
2014-01-30 03:02:00,12.4,4.8,30.12,North,-999,-999.0,0.0,71,0.00,,---,0.00,VWS V14.01,2014-01-30 08:02:00,
2014-01-30 03:07:00,12.2,4.6,30.12,North,-999,-999.0,0.0,71,0.00,,---,0.00,VWS V14.01,2014-01-30 08:07:00,
2014-01-30 03:12:00,12.2,4.6,30.12,North,-999,-999.0,0.0,71,0.00,,---,0.00,VWS V14.01,2014-01-30 08:12:00,
2014-01-30 03:18:00,12.1,4.5,30.12,North,-999,-999.0,0.0,71,0.00,,---,0.00,VWS V14.01,2014-01-30 08:18:00,
2014-01-30 03:23:00,12.1,4.5,30.12,North,-999,-999.0,0.0,71,0.00,,---,0.00,VWS V14.01,2014-01-30 08:23:00,
2014-01-30 03:28:00,11.9,4.3,30.12,North,-999,-999.0,0.0,71,0.00,,---,0.00,VWS V14.01,2014-01-30 08:28:00,
2014-01-30 03:33:00,11.9,4.3,30.12,North,-999,-999.0,0.0,71,0.00,,---,0.00,VWS V14.01,2014-01-30 08:33:00,
2014-01-30 03:38:00,11.9,4.6,30.12,North,-999,-999.0,0.0,72,0.00,,---,0.00,VWS V14.01,2014-01-30 08:38:00,
2014-01-30 03:44:00,11.9,4.6,30.11,North,-999,-999.0,0.0,72,0.00,,---,0.00,VWS V14.01,2014-01-30 08:44:00,
2014-01-30 03:49:00,11.9,4.6,30.11,North,-999,-999.0,0.0,72,0.00,,---,0.00,VWS V14.01,2014-01-30 08:49:00,
2014-01-30 03:54:00,11.9,4.6,30.11,North,-999,-999.0,0.0,72,0.00,,---,0.00,VWS V14.01,2014-01-30 08:54:00,
2014-01-30 03:59:00,11.9,4.6,30.11,North,-999,-999.0,0.0,72,0.00,,---,0.00,VWS V14.01,2014-01-30 08:59:00,
2014-01-30 04:04:00,11.9,4.6,30.11,North,-999,-999.0,0.0,72,0.00,,---,0.00,VWS V14.01,2014-01-30 09:04:00,
2014-01-30 04:09:00,11.9,4.6,30.11,North,-999,-999.0,0.0,72,0.00,,---,0.00,VWS V14.01,2014-01-30 09:09:00,
2014-01-30 04:15:00,11.7,4.4,30.11,North,-999,-999.0,0.0,72,0.00,,---,0.00,VWS V14.01,2014-01-30 09:15:00,
2014-01-30 04:20:00,11.9,4.6,30.11,North,-999,-999.0,0.0,72,0.00,,---,0.00,VWS V14.01,2014-01-30 09:20:00,
2014-01-30 04:25:00,11.7,4.4,30.11,North,-999,-999.0,0.0,72,0.00,,---,0.00,VWS V14.01,2014-01-30 09:25:00,
2014-01-30 04:31:00,11.5,4.2,30.11,North,-999,-999.0,0.0,72,0.00,,---,0.00,VWS V14.01,2014-01-30 09:31:00,
2014-01-30 04:36:00,11.3,4.1,30.12,North,-999,-999.0,0.0,72,0.00,,---,0.00,VWS V14.01,2014-01-30 09:36:00,
2014-01-30 04:41:00,11.5,4.2,30.11,North,-999,-999.0,0.0,72,0.00,,---,0.00,VWS V14.01,2014-01-30 09:41:00,
2014-01-30 04:47:00,11.5,4.2,30.11,North,-999,-999.0,0.0,72,0.00,,---,0.00,VWS V14.01,2014-01-30 09:47:00,
2014-01-30 04:52:00,11.3,4.1,30.11,North,-999,-999.0,0.0,72,0.00,,---,0.00,VWS V14.01,2014-01-30 09:52:00,
2014-01-30 04:57:00,11.3,4.1,30.11,North,-999,-999.0,0.0,72,0.00,,---,0.00,VWS V14.01,2014-01-30 09:57:00,
2014-01-30 05:02:00,11.2,4.0,30.11,North,-999,-999.0,0.0,72,0.00,,---,0.00,VWS V14.01,2014-01-30 10:02:00,
2014-01-30 05:07:00,11.2,4.2,30.11,North,-999,-999.0,0.0,73,0.00,,---,0.00,VWS V14.01,2014-01-30 10:07:00,
2014-01-30 05:12:00,11.2,4.2,30.11,North,-999,-999.0,0.0,73,0.00,,---,0.00,VWS V14.01,2014-01-30 10:12:00,
2014-01-30 05:17:00,11.3,4.1,30.11,North,-999,-999.0,0.0,72,0.00,,---,0.00,VWS V14.01,2014-01-30 10:17:00,
2014-01-30 05:22:00,11.2,4.0,30.11,North,-999,-999.0,0.0,72,0.00,,---,0.00,VWS V14.01,2014-01-30 10:22:00,
2014-01-30 05:27:00,11.0,4.1,30.11,North,-999,-999.0,0.0,73,0.00,,---,0.00,VWS V14.01,2014-01-30 10:27:00,
2014-01-30 05:33:00,10.8,3.9,30.11,North,-999,-999.0,0.0,73,0.00,,---,0.00,VWS V14.01,2014-01-30 10:33:00,
2014-01-30 05:38:00,10.8,3.9,30.11,North,-999,-999.0,0.0,73,0.00,,---,0.00,VWS V14.01,2014-01-30 10:38:00,
2014-01-30 05:43:00,10.6,3.7,30.11,North,-999,-999.0,0.0,73,0.00,,---,0.00,VWS V14.01,2014-01-30 10:43:00,
2014-01-30 05:48:00,10.6,3.7,30.11,North,-999,-999.0,0.0,73,0.00,,---,0.00,VWS V14.01,2014-01-30 10:48:00,
2014-01-30 05:53:00,10.6,3.7,30.12,North,-999,-999.0,0.0,73,0.00,,---,0.00,VWS V14.01,2014-01-30 10:53:00,
2014-01-30 05:59:00,10.4,3.5,30.12,North,-999,-999.0,0.0,73,0.00,,---,0.00,VWS V14.01,2014-01-30 10:59:00,
2014-01-30 06:04:00,10.3,3.4,30.12,North,-999,-999.0,0.0,73,0.00,,---,0.00,VWS V14.01,2014-01-30 11:04:00,
2014-01-30 06:09:00,10.4,3.5,30.13,North,-999,-999.0,0.0,73,0.00,,---,0.00,VWS V14.01,2014-01-30 11:09:00,
2014-01-30 06:14:00,10.4,3.5,30.13,North,-999,-999.0,0.0,73,0.00,,---,0.00,VWS V14.01,2014-01-30 11:14:00,
2014-01-30 06:19:00,10.4,3.8,30.13,North,-999,-999.0,0.0,74,0.00,,---,0.00,VWS V14.01,2014-01-30 11:19:00,
2014-01-30 06:25:00,10.4,3.5,30.13,North,-999,-999.0,0.0,73,0.00,,---,0.00,VWS V14.01,2014-01-30 11:25:00,
2014-01-30 06:30:00,10.3,3.4,30.13,North,-999,-999.0,0.0,73,0.00,,---,0.00,VWS V14.01,2014-01-30 11:30:00,
2014-01-30 06:35:00,10.1,3.2,30.13,North,-999,-999.0,0.0,73,0.00,,---,0.00,VWS V14.01,2014-01-30 11:35:00,
2014-01-30 06:41:00,9.9,3.0,30.13,North,-999,-999.0,0.0,73,0.00,,---,0.00,VWS V14.01,2014-01-30 11:41:00,
2014-01-30 06:46:00,10.1,3.2,30.13,North,-999,-999.0,0.0,73,0.00,,---,0.00,VWS V14.01,2014-01-30 11:46:00,
2014-01-30 06:51:00,10.1,3.2,30.13,North,-999,-999.0,0.0,73,0.00,,---,0.00,VWS V14.01,2014-01-30 11:51:00,
2014-01-30 06:57:00,10.1,3.2,30.13,North,-999,-999.0,0.0,73,0.00,,---,0.00,VWS V14.01,2014-01-30 11:57:00,
2014-01-30 07:02:00,10.3,3.4,30.13,North,-999,-999.0,0.0,73,0.00,,---,0.00,VWS V14.01,2014-01-30 12:02:00,
2014-01-30 07:07:00,10.1,3.5,30.13,North,-999,-999.0,0.0,74,0.00,,---,0.00,VWS V14.01,2014-01-30 12:07:00,
2014-01-30 07:12:00,9.9,3.3,30.13,North,-999,-999.0,0.0,74,0.00,,---,0.00,VWS V14.01,2014-01-30 12:12:00,
2014-01-30 07:17:00,9.9,3.3,30.13,North,-999,-999.0,0.0,74,0.00,,---,0.00,VWS V14.01,2014-01-30 12:17:00,
2014-01-30 07:23:00,9.7,3.1,30.13,North,-999,-999.0,0.0,74,0.00,,---,0.00,VWS V14.01,2014-01-30 12:23:00,
2014-01-30 07:28:00,9.5,2.9,30.13,North,-999,-999.0,0.0,74,0.00,,---,0.00,VWS V14.01,2014-01-30 12:28:00,
2014-01-30 07:33:00,9.5,2.9,30.13,North,-999,-999.0,0.0,74,0.00,,---,0.00,VWS V14.01,2014-01-30 12:33:00,
2014-01-30 07:38:00,9.7,3.1,30.13,North,-999,-999.0,0.0,74,0.00,,---,0.00,VWS V14.01,2014-01-30 12:38:00,
2014-01-30 07:43:00,9.7,2.8,30.13,North,-999,-999.0,0.0,73,0.00,,---,0.00,VWS V14.01,2014-01-30 12:43:00,
2014-01-30 07:49:00,9.7,2.8,30.14,North,-999,-999.0,0.0,73,0.00,,---,0.00,VWS V14.01,2014-01-30 12:49:00,
2014-01-30 07:54:00,9.7,2.8,30.14,North,-999,-999.0,0.0,73,0.00,,---,0.00,VWS V14.01,2014-01-30 12:54:00,
2014-01-30 07:59:00,9.9,3.0,30.14,North,-999,-999.0,0.0,73,0.00,,---,0.00,VWS V14.01,2014-01-30 12:59:00,
2014-01-30 08:04:00,10.1,3.2,30.14,North,-999,-999.0,0.0,73,0.00,,---,0.00,VWS V14.01,2014-01-30 13:04:00,
2014-01-30 08:09:00,10.4,3.5,30.14,North,-999,-999.0,0.0,73,0.00,,---,0.00,VWS V14.01,2014-01-30 13:09:00,
2014-01-30 08:15:00,10.8,3.9,30.14,North,-999,-999.0,0.0,73,0.00,,---,0.00,VWS V14.01,2014-01-30 13:15:00,
2014-01-30 08:20:00,11.7,5.0,30.14,North,-999,-999.0,0.0,74,0.00,,---,0.00,VWS V14.01,2014-01-30 13:20:00,
2014-01-30 08:25:00,12.1,5.4,30.14,North,-999,-999.0,0.0,74,0.00,,---,0.00,VWS V14.01,2014-01-30 13:25:00,
2014-01-30 08:30:00,13.0,6.6,30.14,North,-999,-999.0,0.0,75,0.00,,---,0.00,VWS V14.01,2014-01-30 13:30:00,
2014-01-30 08:35:00,14.4,7.9,30.14,North,-999,-999.0,0.0,75,0.00,,---,0.00,VWS V14.01,2014-01-30 13:35:00,
2014-01-30 08:41:00,15.3,8.5,30.14,North,-999,-999.0,0.0,74,0.00,,---,0.00,VWS V14.01,2014-01-30 13:41:00,
2014-01-30 08:46:00,16.0,9.2,30.14,North,-999,-999.0,0.0,74,0.00,,---,0.00,VWS V14.01,2014-01-30 13:46:00,
2014-01-30 08:51:00,17.1,10.3,30.14,North,-999,-999.0,0.0,74,0.00,,---,0.00,VWS V14.01,2014-01-30 13:51:00,
2014-01-30 08:56:00,18.0,11.1,30.15,North,-999,-999.0,0.0,74,0.00,,---,0.00,VWS V14.01,2014-01-30 13:56:00,
2014-01-30 09:01:00,19.3,12.4,30.15,North,-999,-999.0,0.0,74,0.00,,---,0.00,VWS V14.01,2014-01-30 14:01:00,
2014-01-30 09:07:00,23.0,16.0,30.15,North,-999,-999.0,0.0,74,0.00,,---,0.00,VWS V14.01,2014-01-30 14:07:00,
2014-01-30 09:12:00,27.5,20.0,30.15,North,-999,-999.0,0.0,73,0.00,,---,0.00,VWS V14.01,2014-01-30 14:12:00,
2014-01-30 09:17:00,29.9,21.0,30.15,North,-999,-999.0,0.0,69,0.00,,---,0.00,VWS V14.01,2014-01-30 14:17:00,
2014-01-30 09:22:00,32.2,21.4,30.15,North,-999,-999.0,0.0,64,0.00,,---,0.00,VWS V14.01,2014-01-30 14:22:00,
2014-01-30 09:28:00,33.7,21.7,30.15,North,-999,-999.0,0.0,61,0.00,,---,0.00,VWS V14.01,2014-01-30 14:28:00,
2014-01-30 09:33:00,35.3,22.8,30.15,North,-999,-999.0,0.0,60,0.00,,---,0.00,VWS V14.01,2014-01-30 14:33:00,
2014-01-30 09:38:00,36.4,23.0,30.15,North,-999,-999.0,0.0,58,0.00,,---,0.00,VWS V14.01,2014-01-30 14:38:00,
2014-01-30 09:43:00,37.3,22.6,30.15,North,-999,-999.0,0.0,55,0.00,,---,0.00,VWS V14.01,2014-01-30 14:43:00,
2014-01-30 09:48:00,38.9,24.6,30.15,North,-999,-999.0,0.0,56,0.00,,---,0.00,VWS V14.01,2014-01-30 14:48:00,
2014-01-30 09:54:00,40.9,23.7,30.15,North,-999,-999.0,0.0,50,0.00,,---,0.00,VWS V14.01,2014-01-30 14:54:00,
2014-01-30 09:59:00,41.8,25.0,30.15,North,-999,-999.0,0.0,51,0.00,,---,0.00,VWS V14.01,2014-01-30 14:59:00,
2014-01-30 10:04:00,42.8,25.0,30.15,North,-999,-999.0,0.0,49,0.00,,---,0.00,VWS V14.01,2014-01-30 15:04:00,
2014-01-30 10:09:00,44.3,25.4,30.16,North,-999,-999.0,0.0,47,0.00,,---,0.00,VWS V14.01,2014-01-30 15:09:00,
2014-01-30 10:14:00,43.6,23.1,30.16,North,-999,-999.0,0.0,44,0.00,,---,0.00,VWS V14.01,2014-01-30 15:14:00,
2014-01-30 10:20:00,43.9,22.9,30.16,North,-999,-999.0,0.0,43,0.00,,---,0.00,VWS V14.01,2014-01-30 15:20:00,
2014-01-30 10:25:00,43.6,22.6,30.16,North,-999,-999.0,0.0,43,0.00,,---,0.00,VWS V14.01,2014-01-30 15:25:00,
2014-01-30 10:30:00,44.3,23.8,30.16,North,-999,-999.0,0.0,44,0.00,,---,0.00,VWS V14.01,2014-01-30 15:30:00,
2014-01-30 10:35:00,45.9,23.0,30.16,North,-999,-999.0,0.0,40,0.00,,---,0.00,VWS V14.01,2014-01-30 15:35:00,
2014-01-30 10:40:00,47.5,23.2,30.16,North,-999,-999.0,0.0,38,0.00,,---,0.00,VWS V14.01,2014-01-30 15:40:00,
2014-01-30 10:46:00,47.2,22.9,30.15,North,-999,-999.0,0.0,38,0.00,,---,0.00,VWS V14.01,2014-01-30 15:46:00,
2014-01-30 10:52:00,46.1,21.3,30.15,North,-999,-999.0,0.0,37,0.00,,---,0.00,VWS V14.01,2014-01-30 15:52:00,
2014-01-30 10:58:00,47.5,23.2,30.15,North,-999,-999.0,0.0,38,0.00,,---,0.00,VWS V14.01,2014-01-30 15:58:00,
2014-01-30 11:03:00,48.8,24.3,30.15,North,-999,-999.0,0.0,38,0.00,,---,0.00,VWS V14.01,2014-01-30 16:03:00,
2014-01-30 11:08:00,50.0,25.4,30.15,North,-999,-999.0,0.0,38,0.00,,---,0.00,VWS V14.01,2014-01-30 16:08:00,
2014-01-30 11:13:00,49.0,23.2,30.15,North,-999,-999.0,0.0,36,0.00,,---,0.00,VWS V14.01,2014-01-30 16:13:00,
2014-01-30 11:18:00,47.2,22.3,30.15,North,-999,-999.0,0.0,37,0.00,,---,0.00,VWS V14.01,2014-01-30 16:18:00,
2014-01-30 11:24:00,47.9,22.2,30.15,North,-999,-999.0,0.0,36,0.00,,---,0.00,VWS V14.01,2014-01-30 16:24:00,
2014-01-30 11:29:00,49.3,22.1,30.15,North,-999,-999.0,0.0,34,0.00,,---,0.00,VWS V14.01,2014-01-30 16:29:00,
2014-01-30 11:34:00,51.1,25.1,30.15,North,-999,-999.0,0.0,36,0.00,,---,0.00,VWS V14.01,2014-01-30 16:34:00,
2014-01-30 11:39:00,51.7,22.8,30.15,North,-999,-999.0,0.0,32,0.00,,---,0.00,VWS V14.01,2014-01-30 16:39:00,
2014-01-30 11:44:00,50.6,21.9,30.14,North,-999,-999.0,0.0,32,0.00,,---,0.00,VWS V14.01,2014-01-30 16:44:00,
2014-01-30 11:50:00,47.9,19.5,30.14,North,-999,-999.0,0.0,32,0.00,,---,0.00,VWS V14.01,2014-01-30 16:50:00,
2014-01-30 11:56:00,49.3,22.1,30.15,North,-999,-999.0,0.0,34,0.00,,---,0.00,VWS V14.01,2014-01-30 16:56:00,
2014-01-30 12:01:00,51.1,23.0,30.14,North,-999,-999.0,0.0,33,0.00,,---,0.00,VWS V14.01,2014-01-30 17:01:00,
2014-01-30 12:06:00,52.7,24.4,30.14,North,-999,-999.0,0.0,33,0.00,,---,0.00,VWS V14.01,2014-01-30 17:06:00,
2014-01-30 12:11:00,52.2,20.9,30.13,North,-999,-999.0,0.0,29,0.00,,---,0.00,VWS V14.01,2014-01-30 17:11:00,
2014-01-30 12:16:00,52.9,22.3,30.12,North,-999,-999.0,0.0,30,0.00,,---,0.00,VWS V14.01,2014-01-30 17:16:00,
2014-01-30 12:22:00,52.9,21.5,30.12,North,-999,-999.0,0.0,29,0.00,,---,0.00,VWS V14.01,2014-01-30 17:22:00,
2014-01-30 12:27:00,52.4,21.1,30.11,North,-999,-999.0,0.0,29,0.00,,---,0.00,VWS V14.01,2014-01-30 17:27:00,
2014-01-30 12:32:00,50.6,19.5,30.11,North,-999,-999.0,0.0,29,0.00,,---,0.00,VWS V14.01,2014-01-30 17:32:00,
2014-01-30 12:37:00,51.8,21.4,30.10,North,-999,-999.0,0.0,30,0.00,,---,0.00,VWS V14.01,2014-01-30 17:37:00,
2014-01-30 12:42:00,53.3,21.9,30.09,North,-999,-999.0,0.0,29,0.00,,---,0.00,VWS V14.01,2014-01-30 17:42:00,
2014-01-30 12:48:00,56.2,23.5,30.09,North,-999,-999.0,0.0,28,0.00,,---,0.00,VWS V14.01,2014-01-30 17:48:00,
2014-01-30 12:53:00,55.3,21.0,30.09,North,-999,-999.0,0.0,26,0.00,,---,0.00,VWS V14.01,2014-01-30 17:53:00,
2014-01-30 12:58:00,55.4,21.1,30.08,North,-999,-999.0,0.0,26,0.00,,---,0.00,VWS V14.01,2014-01-30 17:58:00,
2014-01-30 13:03:00,52.9,17.1,30.08,North,-999,-999.0,0.0,24,0.00,,---,0.00,VWS V14.01,2014-01-30 18:03:00,
2014-01-30 13:08:00,53.6,18.6,30.08,North,-999,-999.0,0.0,25,0.00,,---,0.00,VWS V14.01,2014-01-30 18:08:00,
2014-01-30 13:14:00,54.4,21.1,30.08,North,-999,-999.0,0.0,27,0.00,,---,0.00,VWS V14.01,2014-01-30 18:14:00,
2014-01-30 13:19:00,55.1,19.0,30.07,North,-999,-999.0,0.0,24,0.00,,---,0.00,VWS V14.01,2014-01-30 18:19:00,
2014-01-30 13:24:00,55.1,19.0,30.07,North,-999,-999.0,0.0,24,0.00,,---,0.00,VWS V14.01,2014-01-30 18:24:00,
2014-01-30 13:29:00,56.0,22.5,30.07,North,-999,-999.0,0.0,27,0.00,,---,0.00,VWS V14.01,2014-01-30 18:29:00,
2014-01-30 13:34:00,57.6,20.1,30.06,North,-999,-999.0,0.0,23,0.00,,---,0.00,VWS V14.01,2014-01-30 18:34:00,
2014-01-30 13:40:00,58.3,20.7,30.06,North,-999,-999.0,0.0,23,0.00,,---,0.00,VWS V14.01,2014-01-30 18:40:00,
2014-01-30 13:46:00,58.9,21.2,30.06,North,-999,-999.0,0.0,23,0.00,,---,0.00,VWS V14.01,2014-01-30 18:46:00,
2014-01-30 13:51:00,59.0,22.3,30.05,North,-999,-999.0,0.0,24,0.00,,---,0.00,VWS V14.01,2014-01-30 18:51:00,
2014-01-30 13:56:00,59.0,20.2,30.05,North,-999,-999.0,0.0,22,0.00,,---,0.00,VWS V14.01,2014-01-30 18:56:00,
2014-01-30 14:01:00,59.2,20.4,30.05,North,-999,-999.0,0.0,22,0.00,,---,0.00,VWS V14.01,2014-01-30 19:01:00,
2014-01-30 14:06:00,57.6,18.0,30.04,North,-999,-999.0,0.0,21,0.00,,---,0.00,VWS V14.01,2014-01-30 19:06:00,
2014-01-30 14:12:00,55.1,17.0,30.04,North,-999,-999.0,0.0,22,0.00,,---,0.00,VWS V14.01,2014-01-30 19:12:00,
2014-01-30 14:17:00,54.2,16.2,30.03,North,-999,-999.0,0.0,22,0.00,,---,0.00,VWS V14.01,2014-01-30 19:17:00,
2014-01-30 14:22:00,54.0,16.0,30.03,North,-999,-999.0,0.0,22,0.00,,---,0.00,VWS V14.01,2014-01-30 19:22:00,
2014-01-30 14:27:00,56.5,19.2,30.03,North,-999,-999.0,0.0,23,0.00,,---,0.00,VWS V14.01,2014-01-30 19:27:00,
2014-01-30 14:32:00,57.6,18.0,30.04,North,-999,-999.0,0.0,21,0.00,,---,0.00,VWS V14.01,2014-01-30 19:32:00,
2014-01-30 14:38:00,58.1,18.4,30.04,North,-999,-999.0,0.0,21,0.00,,---,0.00,VWS V14.01,2014-01-30 19:38:00,
2014-01-30 14:43:00,57.8,18.1,30.04,North,-999,-999.0,0.0,21,0.00,,---,0.00,VWS V14.01,2014-01-30 19:43:00,
2014-01-30 14:48:00,56.2,16.8,30.03,North,-999,-999.0,0.0,21,0.00,,---,0.00,VWS V14.01,2014-01-30 19:48:00,
2014-01-30 14:53:00,54.4,16.4,30.02,North,-999,-999.0,0.0,22,0.00,,---,0.00,VWS V14.01,2014-01-30 19:53:00,
2014-01-30 14:58:00,54.5,16.5,30.02,North,-999,-999.0,0.0,22,0.00,,---,0.00,VWS V14.01,2014-01-30 19:58:00,
2014-01-30 15:04:00,57.1,19.7,30.02,North,-999,-999.0,0.0,23,0.00,,---,0.00,VWS V14.01,2014-01-30 20:04:00,
2014-01-30 15:09:00,57.1,17.6,30.02,North,-999,-999.0,0.0,21,0.00,,---,0.00,VWS V14.01,2014-01-30 20:09:00,
2014-01-30 15:11:00,56.7,17.2,30.02,North,-999,-999.0,0.0,21,0.00,,---,0.00,VWS V14.01,2014-01-30 20:11:00,
2014-01-30 15:14:00,56.7,17.2,30.02,North,-999,-999.0,0.0,21,0.00,,---,0.00,VWS V14.01,2014-01-30 20:14:00,
2014-01-30 15:20:00,56.7,17.2,30.02,North,-999,-999.0,0.0,21,0.00,,---,0.00,VWS V14.01,2014-01-30 20:20:00,
2014-01-30 16:00:00,54.9,15.7,30.01,North,-999,-999.0,0.0,21,0.00,,---,0.00,VWS V14.01,2014-01-30 21:00:00,
2014-01-30 16:05:00,56.2,17.9,30.01,North,-999,-999.0,0.0,22,0.00,,---,0.00,VWS V14.01,2014-01-30 21:05:00,
2014-01-30 16:10:00,57.4,16.7,30.01,North,-999,-999.0,0.0,20,0.00,,---,0.00,VWS V14.01,2014-01-30 21:10:00,
2014-01-30 16:16:00,57.2,17.6,30.01,North,-999,-999.0,0.0,21,0.00,,---,0.00,VWS V14.01,2014-01-30 21:16:00,
2014-01-30 16:21:00,56.2,16.8,30.00,North,-999,-999.0,0.0,21,0.00,,---,0.00,VWS V14.01,2014-01-30 21:21:00,
2014-01-30 16:27:00,56.5,17.1,30.00,North,-999,-999.0,0.0,21,0.00,,---,0.00,VWS V14.01,2014-01-30 21:27:00,
2014-01-30 16:32:00,56.0,15.5,30.00,North,-999,-999.0,0.0,20,0.00,,---,0.00,VWS V14.01,2014-01-30 21:32:00,
2014-01-30 16:37:00,55.8,16.5,30.00,North,-999,-999.0,0.0,21,0.00,,---,0.00,VWS V14.01,2014-01-30 21:37:00,
2014-01-30 16:42:00,54.5,15.4,29.99,North,-999,-999.0,0.0,21,0.00,,---,0.00,VWS V14.01,2014-01-30 21:42:00,
2014-01-30 16:47:00,55.1,15.9,30.00,North,-999,-999.0,0.0,21,0.00,,---,0.00,VWS V14.01,2014-01-30 21:47:00,
2014-01-30 16:53:00,54.9,15.7,30.00,North,-999,-999.0,0.0,21,0.00,,---,0.00,VWS V14.01,2014-01-30 21:53:00,
2014-01-30 16:58:00,55.4,16.1,29.99,North,-999,-999.0,0.0,21,0.00,,---,0.00,VWS V14.01,2014-01-30 21:58:00,
2014-01-30 17:03:00,54.5,15.4,29.99,North,-999,-999.0,0.0,21,0.00,,---,0.00,VWS V14.01,2014-01-30 22:03:00,
2014-01-30 17:08:00,54.7,15.6,29.99,North,-999,-999.0,0.0,21,0.00,,---,0.00,VWS V14.01,2014-01-30 22:08:00,
2014-01-30 17:13:00,54.0,16.0,29.99,North,-999,-999.0,0.0,22,0.00,,---,0.00,VWS V14.01,2014-01-30 22:13:00,
2014-01-30 17:19:00,52.2,14.5,29.99,North,-999,-999.0,0.0,22,0.00,,---,0.00,VWS V14.01,2014-01-30 22:19:00,
2014-01-30 17:24:00,51.7,14.1,29.99,North,-999,-999.0,0.0,22,0.00,,---,0.00,VWS V14.01,2014-01-30 22:24:00,
2014-01-30 17:29:00,50.0,12.7,29.99,North,-999,-999.0,0.0,22,0.00,,---,0.00,VWS V14.01,2014-01-30 22:29:00,
2014-01-30 17:34:00,47.2,11.3,29.99,North,-999,-999.0,0.0,23,0.00,,---,0.00,VWS V14.01,2014-01-30 22:34:00,
2014-01-30 17:39:00,45.2,10.6,30.00,North,-999,-999.0,0.0,24,0.00,,---,0.00,VWS V14.01,2014-01-30 22:39:00,
2014-01-30 17:45:00,43.4,9.9,29.99,North,-999,-999.0,0.0,25,0.00,,---,0.00,VWS V14.01,2014-01-30 22:45:00,
2014-01-30 17:50:00,42.1,10.6,29.99,North,-999,-999.0,0.0,27,0.00,,---,0.00,VWS V14.01,2014-01-30 22:50:00,
2014-01-30 17:55:00,40.7,10.1,29.99,North,-999,-999.0,0.0,28,0.00,,---,0.00,VWS V14.01,2014-01-30 22:55:00,
2014-01-30 18:01:00,40.0,10.3,30.00,North,-999,-999.0,0.0,29,0.00,,---,0.00,VWS V14.01,2014-01-30 23:01:00,
2014-01-30 18:06:00,38.9,9.4,30.00,North,-999,-999.0,0.0,29,0.00,,---,0.00,VWS V14.01,2014-01-30 23:06:00,
2014-01-30 18:11:00,38.0,8.6,30.01,North,-999,-999.0,0.0,29,0.00,,---,0.00,VWS V14.01,2014-01-30 23:11:00,
2014-01-30 18:17:00,37.3,8.7,30.01,North,-999,-999.0,0.0,30,0.00,,---,0.00,VWS V14.01,2014-01-30 23:17:00,
2014-01-30 18:23:00,36.4,8.7,30.02,North,-999,-999.0,0.0,31,0.00,,---,0.00,VWS V14.01,2014-01-30 23:23:00,
2014-01-30 18:28:00,35.6,8.7,30.02,North,-999,-999.0,0.0,32,0.00,,---,0.00,VWS V14.01,2014-01-30 23:28:00,
2014-01-30 18:33:00,34.4,9.6,30.00,North,-999,-999.0,0.0,35,0.00,,---,0.00,VWS V14.01,2014-01-30 23:33:00,
2014-01-30 18:39:00,33.1,9.7,29.98,North,-999,-999.0,0.0,37,0.00,,---,0.00,VWS V14.01,2014-01-30 23:39:00,
2014-01-30 18:44:00,32.8,10.0,30.00,North,-999,-999.0,0.0,38,0.00,,---,0.00,VWS V14.01,2014-01-30 23:44:00,
2014-01-30 18:49:00,32.4,9.6,30.00,North,-999,-999.0,0.0,38,0.00,,---,0.00,VWS V14.01,2014-01-30 23:49:00,
2014-01-30 18:55:00,31.9,9.2,30.00,North,-999,-999.0,0.0,38,0.00,,---,0.00,VWS V14.01,2014-01-30 23:55:00,
2014-01-30 19:00:00,31.3,8.6,30.00,North,-999,-999.0,0.0,38,0.00,,---,0.00,VWS V14.01,2014-01-31 00:00:00,
2014-01-30 19:05:00,31.0,9.0,30.00,North,-999,-999.0,0.0,39,0.00,,---,0.00,VWS V14.01,2014-01-31 00:05:00,
2014-01-30 19:11:00,30.6,9.2,30.00,North,-999,-999.0,0.0,40,0.00,,---,0.00,VWS V14.01,2014-01-31 00:11:00,
2014-01-30 19:16:00,30.4,9.0,30.00,North,-999,-999.0,0.0,40,0.00,,---,0.00,VWS V14.01,2014-01-31 00:16:00,
2014-01-30 19:21:00,29.9,9.1,30.00,North,-999,-999.0,0.0,41,0.00,,---,0.00,VWS V14.01,2014-01-31 00:21:00,
2014-01-30 19:26:00,29.7,8.9,30.00,North,-999,-999.0,0.0,41,0.00,,---,0.00,VWS V14.01,2014-01-31 00:26:00,
2014-01-30 19:31:00,29.3,9.1,30.00,North,-999,-999.0,0.0,42,0.00,,---,0.00,VWS V14.01,2014-01-31 00:31:00,
2014-01-30 19:37:00,29.0,9.3,30.00,North,-999,-999.0,0.0,43,0.00,,---,0.00,VWS V14.01,2014-01-31 00:37:00,
2014-01-30 19:42:00,28.4,8.8,30.00,North,-999,-999.0,0.0,43,0.00,,---,0.00,VWS V14.01,2014-01-31 00:42:00,
2014-01-30 19:47:00,28.3,9.2,30.00,North,-999,-999.0,0.0,44,0.00,,---,0.00,VWS V14.01,2014-01-31 00:47:00,
2014-01-30 19:52:00,27.9,9.3,29.99,North,-999,-999.0,0.0,45,0.00,,---,0.00,VWS V14.01,2014-01-31 00:52:00,
2014-01-30 19:57:00,27.7,9.1,30.00,North,-999,-999.0,0.0,45,0.00,,---,0.00,VWS V14.01,2014-01-31 00:57:00,
2014-01-30 20:03:00,27.4,8.9,30.00,North,-999,-999.0,0.0,45,0.00,,---,0.00,VWS V14.01,2014-01-31 01:03:00,
2014-01-30 20:08:00,27.0,9.0,30.00,North,-999,-999.0,0.0,46,0.00,,---,0.00,VWS V14.01,2014-01-31 01:08:00,
2014-01-30 20:13:00,27.0,9.0,30.00,North,-999,-999.0,0.0,46,0.00,,---,0.00,VWS V14.01,2014-01-31 01:13:00,
2014-01-30 20:18:00,26.6,9.1,30.01,North,-999,-999.0,0.0,47,0.00,,---,0.00,VWS V14.01,2014-01-31 01:18:00,
2014-01-30 20:23:00,26.3,9.3,30.01,North,-999,-999.0,0.0,48,0.00,,---,0.00,VWS V14.01,2014-01-31 01:23:00,
2014-01-30 20:29:00,26.3,9.3,30.01,North,-999,-999.0,0.0,48,0.00,,---,0.00,VWS V14.01,2014-01-31 01:29:00,
2014-01-30 20:34:00,25.9,8.9,30.01,North,-999,-999.0,0.0,48,0.00,,---,0.00,VWS V14.01,2014-01-31 01:34:00,
2014-01-30 20:39:00,25.6,8.6,30.01,North,-999,-999.0,0.0,48,0.00,,---,0.00,VWS V14.01,2014-01-31 01:39:00,
2014-01-30 20:44:00,25.4,8.9,30.01,North,-999,-999.0,0.0,49,0.00,,---,0.00,VWS V14.01,2014-01-31 01:44:00,
2014-01-30 20:49:00,25.0,9.0,30.02,North,-999,-999.0,0.0,50,0.00,,---,0.00,VWS V14.01,2014-01-31 01:49:00,
2014-01-30 20:55:00,24.8,8.8,30.03,North,-999,-999.0,0.0,50,0.00,,---,0.00,VWS V14.01,2014-01-31 01:55:00,
2014-01-30 21:00:00,24.7,9.2,30.03,North,-999,-999.0,0.0,51,0.00,,---,0.00,VWS V14.01,2014-01-31 02:00:00,
2014-01-30 21:05:00,24.5,9.4,30.03,North,-999,-999.0,0.0,52,0.00,,---,0.00,VWS V14.01,2014-01-31 02:05:00,
2014-01-30 21:10:00,24.3,9.6,30.03,North,-999,-999.0,0.0,53,0.00,,---,0.00,VWS V14.01,2014-01-31 02:10:00,
2014-01-30 21:15:00,24.1,9.5,30.03,North,-999,-999.0,0.0,53,0.00,,---,0.00,VWS V14.01,2014-01-31 02:15:00,
2014-01-30 21:21:00,24.1,9.5,30.03,North,-999,-999.0,0.0,53,0.00,,---,0.00,VWS V14.01,2014-01-31 02:21:00,
2014-01-30 21:26:00,23.9,9.7,30.03,North,-999,-999.0,0.0,54,0.00,,---,0.00,VWS V14.01,2014-01-31 02:26:00,
2014-01-30 21:31:00,23.8,9.6,30.03,North,-999,-999.0,0.0,54,0.00,,---,0.00,VWS V14.01,2014-01-31 02:31:00,
2014-01-30 21:36:00,23.4,9.6,30.03,North,-999,-999.0,0.0,55,0.00,,---,0.00,VWS V14.01,2014-01-31 02:36:00,
2014-01-30 21:41:00,23.4,9.6,30.03,North,-999,-999.0,0.0,55,0.00,,---,0.00,VWS V14.01,2014-01-31 02:41:00,
2014-01-30 21:47:00,23.4,9.6,30.03,North,-999,-999.0,0.0,55,0.00,,---,0.00,VWS V14.01,2014-01-31 02:47:00,
2014-01-30 21:52:00,23.2,9.4,30.03,North,-999,-999.0,0.0,55,0.00,,---,0.00,VWS V14.01,2014-01-31 02:52:00,
2014-01-30 21:57:00,22.7,9.0,30.02,North,-999,-999.0,0.0,55,0.00,,---,0.00,VWS V14.01,2014-01-31 02:57:00,
2014-01-30 22:02:00,22.7,9.0,30.02,North,-999,-999.0,0.0,55,0.00,,---,0.00,VWS V14.01,2014-01-31 03:02:00,
2014-01-30 22:08:00,22.3,9.0,30.02,North,-999,-999.0,0.0,56,0.00,,---,0.00,VWS V14.01,2014-01-31 03:08:00,
2014-01-30 22:14:00,22.5,9.2,30.02,North,-999,-999.0,0.0,56,0.00,,---,0.00,VWS V14.01,2014-01-31 03:14:00,
2014-01-30 22:19:00,22.5,9.2,30.01,North,-999,-999.0,0.0,56,0.00,,---,0.00,VWS V14.01,2014-01-31 03:19:00,
2014-01-30 22:24:00,22.3,9.0,30.01,North,-999,-999.0,0.0,56,0.00,,---,0.00,VWS V14.01,2014-01-31 03:24:00,
2014-01-30 22:30:00,22.0,9.1,30.01,North,-999,-999.0,0.0,57,0.00,,---,0.00,VWS V14.01,2014-01-31 03:30:00,
2014-01-30 22:36:00,21.8,9.3,30.01,North,-999,-999.0,0.0,58,0.00,,---,0.00,VWS V14.01,2014-01-31 03:36:00,
2014-01-30 22:41:00,21.4,8.9,30.01,North,-999,-999.0,0.0,58,0.00,,---,0.00,VWS V14.01,2014-01-31 03:41:00,
2014-01-30 22:46:00,21.1,8.6,30.00,North,-999,-999.0,0.0,58,0.00,,---,0.00,VWS V14.01,2014-01-31 03:46:00,
2014-01-30 22:52:00,21.1,9.0,30.00,North,-999,-999.0,0.0,59,0.00,,---,0.00,VWS V14.01,2014-01-31 03:52:00,
2014-01-30 22:57:00,21.1,9.4,30.01,North,-999,-999.0,0.0,60,0.00,,---,0.00,VWS V14.01,2014-01-31 03:57:00,
2014-01-30 23:02:00,20.9,9.6,30.00,North,-999,-999.0,0.0,61,0.00,,---,0.00,VWS V14.01,2014-01-31 04:02:00,
2014-01-30 23:07:00,20.7,9.0,30.00,North,-999,-999.0,0.0,60,0.00,,---,0.00,VWS V14.01,2014-01-31 04:07:00,
2014-01-30 23:12:00,20.5,9.2,30.00,North,-999,-999.0,0.0,61,0.00,,---,0.00,VWS V14.01,2014-01-31 04:12:00,
2014-01-30 23:18:00,20.5,9.2,30.00,North,-999,-999.0,0.0,61,0.00,,---,0.00,VWS V14.01,2014-01-31 04:18:00,
2014-01-30 23:23:00,20.2,8.9,30.00,North,-999,-999.0,0.0,61,0.00,,---,0.00,VWS V14.01,2014-01-31 04:23:00,
2014-01-30 23:28:00,20.0,9.1,30.00,North,-999,-999.0,0.0,62,0.00,,---,0.00,VWS V14.01,2014-01-31 04:28:00,
2014-01-30 23:33:00,20.2,9.3,30.00,North,-999,-999.0,0.0,62,0.00,,---,0.00,VWS V14.01,2014-01-31 04:33:00,
2014-01-30 23:38:00,20.0,9.4,30.00,North,-999,-999.0,0.0,63,0.00,,---,0.00,VWS V14.01,2014-01-31 04:38:00,
2014-01-30 23:44:00,20.2,9.3,30.00,North,-999,-999.0,0.0,62,0.00,,---,0.00,VWS V14.01,2014-01-31 04:44:00,
2014-01-30 23:49:00,20.0,9.4,30.00,North,-999,-999.0,0.0,63,0.00,,---,0.00,VWS V14.01,2014-01-31 04:49:00,
2014-01-30 23:54:00,19.8,9.3,30.00,North,-999,-999.0,0.0,63,0.00,,---,0.00,VWS V14.01,2014-01-31 04:54:00,
2014-01-30 23:59:00,19.8,9.3,30.00,North,-999,-999.0,0.0,63,0.00,,---,0.00,VWS V14.01,2014-01-31 04:59:00,